Find Starlink 6174

NORAD ID: 57366 Int'l Des: 2023-099 Owner: SPXS Country: US Constellation: starlink operational
LEOCIRCULAR

Live Position

Loading 3D Globe...

About Starlink 6174

Description loading...

Upcoming Passes

Passes for default location (London). Set your location on the main map for personalized predictions.

Altitude History

Loading altitude history...

Two-Line Element Set

1 57366U 23099AQ 26107.25003472 .00060577 00000-0 22509-2 0 9994
2 57366 43.0015 23.7813 0001266 267.9553 251.8487 15.26720375 5837
Epoch: Apr 17, 2026 • Age: 9 hours

Current Status

Altitude 490.0 km
Velocity 7.62 km/s
Sub-Earth Point -21.50°S, 67.58°W
Launch Date Jul 16, 2023
Age 2.7 years
Type internet

Technical Details

Classification Payload
Mass 305.00 kg
Dry Mass 290.00 kg
Total Mass 305.00 kg
Length 0.20 m
Diameter 2.80 m
Span 9.00 m
Shape Box + pan
Manufacturer SPXS
Bus Type Starlink
Phase Status In Orbit
Owner/State SPXS/US

Most Searched